Wind_Speed
20 20 20 21 23 25 26 27 26 25 25 24 25 28 29 28 26 25 24 21 19 18 17 16 17 17 17 18 17 16 16 15 14 13 13 12 12 12 12 12 12 12 12 11 11 10 9 8 7 7 7 6 6 6 7 8 9 10 10 9 9 11 10 10 12 12 12 12 11 10 9 8 7 7 6 6 6 6 7 6 7 7 8 7 7
21 19 18 20 23 24 26 27 26 26 27 26 25 27 29 27 26 25 22 20 18 18 17 17 17 17 17 17 16 15 15 14 13 12 12 11 11 11 12 12 12 12 10 10 10 9 9 9 8 7 7 8 8 8 8 9 10 11 11 10 10 12 10 10 11 11 12 13 12 10 10 9 8 7 7 7 6 6 6 6 7 7 7 7 7
19 16 16 21 24 25 26 26 25 27 29 28 26 27 29 27 25 24 21 19 18 18 17 17 17 17 17 16 15 14 13 12 12 11 11 10 11 11 11 12 12 11 10 10 9 9 9 9 9 8 8 8 8 8 8 10 11 12 12 11 11 13 11 10 11 11 11 12 12 11 11 10 9 8 8 7 6 6 6 6 7 8 7 7 8
16 15 17 21 25 26 26 25 25 28 29 27 28 28 28 27 24 22 20 19 18 18 17 17 17 17 17 16 15 13 12 11 11 10 10 10 9 10 11 11 12 11 11 10 10 9 9 9 9 8 9 9 9 8 9 10 12 13 13 13 12 13 12 10 10 11 11 12 12 11 11 10 9 8 7 7 7 6 6 7 8 8 8 8 8
16 16 19 22 25 26 26 26 26 28 28 27 30 29 27 25 23 21 19 19 18 17 17 17 17 17 16 15 14 12 11 11 10 10 9 9 9 10 11 11 12 11 10 10 10 9 9 9 9 9 9 9 9 8 9 11 12 13 13 14 13 13 13 11 11 11 11 11 11 11 11 10 8 7 6 6 6 6 6 7 7 8 8 8 8
19 20 22 23 24 25 25 26 27 28 28 29 29 27 26 24 22 20 19 18 17 17 17 17 17 17 15 14 13 12 11 11 11 10 9 9 10 10 11 11 12 11 10 10 10 10 10 10 10 10 10 10 9 9 10 10 12 12 12 13 14 13 14 13 12 11 10 11 11 11 10 10 9 7 6 7 7 7 7 7 7 7 8 9 9
22 23 24 24 24 24 23 25 26 27 28 28 27 25 24 22 21 20 18 17 16 17 18 17 17 16 14 13 12 11 11 11 10 10 10 10 10 10 11 12 12 12 11 10 10 11 12 12 12 12 11 11 11 11 11 11 11 12 12 13 14 13 14 14 13 12 11 10 11 11 10 10 10 9 8 9 9 9 8 8 7 7 8 9 9
24 24 24 24 23 23 23 23 24 26 27 26 25 24 23 22 21 19 17 17 17 17 17 17 16 15 13 12 11 11 11 10 10 10 10 10 9 10 11 12 12 12 12 11 11 11 12 13 13 13 13 12 12 12 12 11 11 11 11 12 12 13 13 14 14 13 12 11 10 10 10 10 10 10 10 10 11 11 11 10 10 9 9 9 9
25 24 24 23 23 23 23 24 24 25 25 25 24 23 22 21 20 18 17 17 17 18 17 16 15 14 13 11 11 11 11 10 10 10 10 10 9 9 11 12 12 12 12 12 12 12 13 13 14 14 14 13 12 12 12 11 10 11 11 11 11 12 12 12 13 14 13 12 11 10 10 11 11 11 10 11 12 12 12 12 12 11 10 10 9
25 24 24 23 23 23 23 24 25 25 25 24 23 22 21 20 18 17 17 17 17 17 17 16 14 13 12 11 11 11 10 10 10 10 10 10 9 9 10 11 12 13 13 13 13 13 12 13 13 14 13 13 12 11 11 11 10 10 10 10 10 10 11 11 12 12 12 12 11 11 10 10 11 11 10 11 12 12 13 13 12 11 10 10 9
24 23 23 22 22 22 22 24 25 25 25 24 22 21 20 19 17 17 17 17 17 17 16 15 14 13 11 10 10 10 10 10 10 11 10 10 10 10 10 11 12 12 13 13 13 13 12 12 13 13 13 12 11 11 10 10 10 10 9 10 10 9 9 10 11 11 11 11 12 11 10 9 10 10 9 9 11 12 12 13 12 11 9 9 9
23 22 22 21 22 22 22 24 25 25 25 24 22 21 19 18 16 16 17 17 17 16 15 14 13 12 10 9 10 10 10 11 11 11 10 10 10 10 11 12 12 12 13 14 13 13 13 13 13 13 13 12 11 10 10 9 9 10 9 9 9 8 8 9 10 10 10 10 11 11 10 9 9 10 9 8 9 10 10 11 11 10 9 8 8
23 22 21 21 21 22 22 23 25 25 24 23 22 20 19 17 16 16 16 16 16 15 14 13 12 11 10 9 9 9 10 11 11 11 10 11 11 11 12 12 13 13 13 13 13 13 12 12 12 12 12 11 10 9 9 8 8 9 9 9 9 9 8 8 9 9 9 9 9 9 9 8 9 9 8 7 7 8 8 9 9 8 8 8 7
21 21 20 20 21 21 22 23 24 24 24 22 21 20 18 17 16 16 16 15 15 14 13 12 12 10 9 8 9 9 10 11 11 11 10 11 11 12 12 12 12 11 11 11 11 11 11 11 11 11 10 10 9 9 8 7 7 8 8 8 9 9 8 8 8 9 9 8 8 8 8 7 8 7 7 7 7 7 7 6 5 6 6 7 7
20 20 19 19 20 21 21 22 24 24 23 22 20 19 18 16 16 15 15 15 14 13 12 12 11 9 8 8 8 8 9 10 10 10 10 10 10 11 11 11 10 10 10 10 10 11 11 11 11 11 11 10 10 9 9 8 8 8 7 7 7 8 8 8 8 8 9 9 8 7 7 6 6 6 5 5 6 6 6 4 3 3 4 5 6
20 19 19 19 20 21 21 22 23 24 23 22 20 19 17 16 16 15 14 14 13 12 12 11 10 9 8 8 8 8 8 9 9 9 9 9 9 9 9 9 9 10 10 10 11 12 12 12 12 12 11 11 11 10 10 8 8 7 7 6 6 7 8 8 7 7 8 8 8 7 7 7 6 6 5 5 5 4 4 3 2 1 3 5 6
21 19 18 18 19 20 21 22 23 24 23 22 20 18 17 16 15 15 14 13 12 12 11 11 9 8 8 8 8 8 7 7 7 7 8 7 7 7 8 8 9 10 10 11 12 12 13 13 12 12 11 11 10 10 9 8 7 6 7 7 6 6 6 7 7 7 7 8 8 7 7 7 7 6 6 6 6 4 3 4 5 4 3 5 6
21 20 19 18 18 20 21 22 23 23 23 22 20 18 17 16 15 14 14 13 12 11 11 10 9 8 8 7 7 7 6 5 5 5 6 6 6 7 8 8 9 9 10 11 12 12 12 13 12 12 11 10 10 9 8 8 8 7 7 7 6 5 5 5 6 6 6 6 7 7 7 7 8 7 5 5 5 5 4 5 6 6 5 5 7
21 20 19 19 19 20 21 22 22 23 23 22 20 19 17 16 15 14 13 12 12 11 11 10 9 8 8 7 7 6 6 5 4 4 5 6 7 7 8 9 9 9 10 10 11 11 12 12 13 12 11 10 9 8 8 9 8 8 7 6 6 5 4 4 5 5 5 5 6 6 7 7 8 8 5 4 4 4 3 4 5 6 6 6 6
21 21 20 19 19 20 21 22 22 22 22 21 20 19 17 16 15 14 13 12 12 11 11 10 8 8 7 7 6 5 5 4 4 4 5 6 7 8 9 9 9 9 10 10 11 10 11 12 13 13 13 12 10 9 9 9 8 7 6 5 4 4 4 4 4 4 4 5 5 6 6 6 7 7 5 4 4 3 2 2 3 4 6 6 5
22 21 20 19 20 20 21 22 21 21 21 21 20 19 17 16 15 14 13 12 12 11 11 9 8 7 7 6 5 4 4 4 4 5 6 7 8 8 8 9 9 9 9 9 9 9 9 11 12 13 14 14 12 11 10 9 8 7 5 3 2 3 3 3 3 3 4 4 4 5 6 6 6 7 6 5 4 4 3 3 2 2 4 5 4
22 21 21 20 20 20 20 21 21 20 21 21 20 19 17 16 15 14 13 12 12 11 10 9 7 7 6 5 4 3 3 4 5 6 6 7 8 8 8 8 8 8 8 8 7 7 9 10 11 12 13 13 12 12 11 9 9 8 7 4 1 1 2 3 3 3 3 3 4 4 5 5 6 6 6 5 5 5 4 4 4 3 3 3 2
20 20 20 20 20 20 20 20 20 20 20 20 20 19 17 16 15 14 13 12 12 11 10 8 7 6 5 4 3 3 4 5 6 6 7 7 7 8 8 7 7 7 7 6 6 6 8 9 10 11 11 12 12 12 12 10 9 9 8 5 2 2 3 3 4 4 4 3 3 3 3 4 5 5 5 5 5 5 5 6 6 5 4 3 2
19 19 19 19 19 20 20 20 20 19 20 20 19 18 17 16 15 14 13 12 12 11 10 8 7 6 5 4 4 5 5 5 6 7 7 7 7 7 7 6 6 6 5 5 4 6 7 8 9 10 11 11 11 12 12 12 10 10 10 7 3 1 4 4 5 5 5 4 4 4 3 3 4 4 4 4 4 5 5 6 6 6 5 4 2
18 18 18 18 18 19 20 20 20 19 19 19 18 17 16 15 14 14 13 12 12 12 10 9 7 6 5 5 5 6 6 5 6 6 6 6 5 5 5 5 5 4 4 4 5 6 7 8 9 10 11 11 12 12 13 13 12 11 11 8 5 2 2 4 5 5 6 5 5 4 4 3 3 3 3 3 4 4 5 5 6 6 6 4 3
19 19 19 18 18 19 20 20 20 20 19 18 18 17 16 15 14 14 13 13 12 12 10 9 8 6 6 6 6 6 6 6 5 5 5 5 4 4 4 4 4 4 4 5 5 6 7 8 9 10 11 12 12 13 14 15 14 12 12 10 7 5 3 2 3 4 5 5 6 5 5 4 3 3 3 3 3 3 4 4 4 4 5 4 4
18 18 19 19 19 20 20 20 20 20 19 19 18 17 16 15 15 15 14 14 13 12 11 9 8 7 7 7 7 7 6 5 5 5 5 5 4 3 3 3 3 4 4 4 5 6 7 8 10 10 11 12 13 14 15 15 15 14 12 11 9 7 5 2 2 3 4 5 6 7 6 5 4 3 3 3 3 3 3 3 3 3 3 3 4
18 18 19 20 20 20 21 21 21 20 20 19 18 17 17 16 16 15 15 14 13 12 11 10 8 8 8 8 8 7 6 5 4 4 3 3 3 2 2 2 3 3 4 4 5 6 7 8 10 10 10 11 13 14 15 15 15 15 13 12 11 8 6 3 1 2 4 5 7 8 8 7 5 4 4 4 3 3 3 3 3 2 2 1 2
18 19 19 20 20 21 21 21 21 21 20 19 18 18 18 17 16 15 15 14 13 12 11 10 9 9 9 8 8 7 7 6 4 3 3 2 2 1 1 2 2 3 3 4 4 6 7 8 9 10 10 10 11 13 14 15 13 13 13 13 12 9 6 4 2 1 2 5 7 9 9 9 7 5 6 5 5 3 3 3 2 2 2 1 2
19 19 20 20 20 20 20 20 20 20 20 19 19 18 18 17 16 15 15 14 13 12 11 10 9 9 9 9 9 8 7 6 4 4 3 2 1 0 1 1 2 3 3 3 5 6 7 7 8 9 10 9 10 11 12 14 11 10 12 12 11 10 8 6 4 3 2 1 6 9 11 11 9 8 7 6 6 5 4 3 2 2 2 2 2
20 21 21 21 20 20 20 20 20 20 20 20 19 18 18 17 16 16 15 14 14 13 12 11 10 10 10 10 9 8 7 6 5 4 3 2 1 1 1 2 2 3 3 4 5 5 6 7 7 8 8 8 10 11 12 12 11 10 11 11 10 10 9 7 5 4 3 2 3 8 11 11 11 10 9 7 7 7 6 5 3 3 3 3 2
21 21 21 21 21 20 20 21 21 21 20 20 19 19 18 17 17 16 15 15 14 13 12 11 11 11 11 10 9 8 7 6 5 5 4 2 2 1 1 1 2 3 3 4 4 5 6 7 8 9 9 8 9 12 14 12 10 9 9 9 8 8 9 8 6 5 3 3 4 6 9 10 11 11 9 9 8 8 7 6 5 4 4 4 2
20 21 22 22 21 21 21 21 21 21 20 20 20 19 18 18 17 16 16 15 14 13 12 12 12 12 11 10 9 8 8 7 6 5 4 3 2 1 1 1 1 2 3 4 4 5 6 7 8 9 9 8 8 11 14 13 10 9 8 8 7 6 8 8 6 6 4 2 4 5 7 8 10 10 9 9 9 8 7 6 6 5 4 4 3
20 21 22 22 22 22 22 22 22 21 21 20 20 19 18 18 17 17 16 15 14 13 13 13 13 12 12 11 10 9 8 7 6 5 4 3 2 1 1 0 0 1 2 3 5 5 6 7 8 8 9 8 8 11 13 13 12 10 8 8 8 6 6 6 6 5 4 1 3 5 6 6 8 9 9 10 10 8 8 8 7 6 5 5 4
21 22 22 22 22 23 23 22 22 21 21 20 19 19 18 18 17 17 16 15 14 14 14 14 14 13 12 12 11 10 9 8 6 5 4 3 2 1 1 0 0 1 2 4 5 6 7 7 8 8 8 8 9 12 13 12 12 11 9 8 8 7 5 4 4 4 3 1 2 4 5 5 5 7 8 9 10 9 9 9 8 6 6 7 7
21 22 22 23 23 23 23 22 22 21 21 20 19 19 18 18 18 17 17 16 15 15 15 15 14 14 13 12 12 11 10 8 7 5 4 3 2 1 1 1 1 2 3 5 6 7 7 7 8 7 6 7 10 12 13 12 10 10 10 8 7 6 5 2 2 1 2 2 2 1 3 4 3 4 5 7 9 9 9 9 9 8 8 8 7
21 22 23 23 24 24 24 23 22 21 21 20 20 19 19 19 19 18 18 17 17 16 16 16 15 14 13 13 12 11 10 9 7 6 5 4 3 2 2 1 1 2 4 5 7 8 8 8 8 7 5 6 8 7 10 12 11 10 10 7 6 6 4 2 1 2 2 2 2 2 2 3 3 3 3 5 7 8 8 8 9 9 9 8 8
21 22 23 23 24 24 24 23 22 21 21 21 20 20 20 20 20 19 19 18 18 18 17 17 16 14 13 13 12 11 10 9 7 6 5 4 3 3 2 2 2 3 4 6 7 8 8 8 8 6 5 5 5 3 5 9 9 9 9 7 5 5 4 2 3 4 2 1 2 3 3 3 3 3 4 4 5 6 7 7 8 9 9 9 9
22 23 24 24 25 25 24 23 22 22 22 22 21 22 22 21 20 20 19 19 18 18 18 17 16 15 14 13 13 12 11 9 8 6 5 5 4 4 3 2 3 4 5 6 7 7 8 7 5 3 3 4 4 3 3 6 6 6 6 5 4 4 3 2 4 4 3 2 3 3 3 3 3 3 4 5 5 5 5 6 6 6 7 8 8
24 24 24 25 25 25 25 24 23 23 23 23 23 23 22 21 20 19 18 17 18 17 17 16 16 15 14 14 13 12 12 10 8 7 6 5 5 4 3 3 4 4 5 7 7 7 5 3 2 3 4 4 4 4 5 5 5 5 5 5 5 5 4 3 4 3 2 2 2 2 1 3 4 5 5 5 6 6 6 6 6 6 6 7 7
25 25 26 25 25 25 25 25 24 24 24 23 22 22 20 19 17 16 15 15 15 15 15 15 15 15 14 14 14 13 12 10 8 7 6 6 5 4 4 5 5 5 6 7 6 4 1 1 3 4 4 4 4 5 6 5 5 6 7 7 7 6 5 4 4 3 2 1 0 0 0 1 3 5 5 5 6 6 7 8 8 8 7 8 8
26 26 26 26 25 25 25 25 25 24 23 22 21 20 18 17 15 14 13 13 13 13 13 14 15 15 15 15 14 13 12 11 9 8 7 6 5 5 5 6 6 6 7 6 3 2 3 3 5 6 5 5 6 6 6 6 6 7 8 9 9 8 6 5 5 4 3 2 2 3 3 1 1 2 3 4 4 5 7 8 9 9 8 9 9
26 26 26 26 26 26 26 26 25 24 23 22 20 18 17 16 15 14 14 14 14 14 14 15 16 16 16 15 14 13 12 11 10 9 8 7 6 6 6 6 6 6 5 3 4 5 6 6 7 7 6 6 6 6 6 6 6 7 8 9 10 9 8 7 7 6 5 4 3 4 5 3 2 2 2 3 4 4 5 7 8 8 8 9 9
27 27 27 28 28 27 26 26 25 23 22 20 19 18 18 18 17 16 16 17 17 17 17 17 17 17 16 16 15 14 13 12 11 10 9 8 8 7 7 6 6 5 3 5 7 8 8 8 7 7 6 5 5 5 5 5 6 6 7 8 10 10 8 8 7 7 7 7 6 6 6 6 5 4 3 3 2 2 3 4 5 6 7 8 8
28 28 29 29 28 27 26 26 24 23 22 20 19 20 20 19 19 19 19 19 19 19 18 17 17 16 15 15 14 14 13 13 12 11 10 9 9 8 7 7 6 4 6 8 9 9 9 8 7 6 5 4 4 4 4 5 5 5 5 7 9 9 9 8 7 7 8 7 7 7 7 7 7 6 6 5 3 2 2 2 2 3 4 5 6
29 28 28 28 27 27 26 26 25 24 23 22 21 22 21 21 20 20 19 17 16 13 11 11 12 13 14 15 15 14 14 13 12 12 11 10 10 9 8 7 6 6 8 11 11 10 9 8 7 6 4 4 4 5 5 5 5 5 5 6 7 9 9 9 8 7 7 7 7 7 7 7 7 6 6 4 3 3 2 2 2 2 2 3 4
29 28 28 28 27 27 27 27 26 25 24 24 24 23 23 22 20 19 17 15 12 9 8 8 10 11 13 15 16 15 14 13 13 13 12 12 10 10 9 8 7 8 11 12 12 11 9 8 6 5 4 5 5 6 7 7 7 7 6 6 7 8 8 9 8 7 7 7 7 6 6 6 6 5 4 3 3 3 4 5 5 4 4 3 4
28 29 28 27 27 27 27 27 26 26 26 25 25 25 23 22 20 18 17 15 12 11 11 10 10 11 12 14 15 16 15 14 14 14 14 13 11 11 10 8 8 11 13 13 12 11 9 8 6 5 5 5 6 7 8 8 8 8 8 8 7 7 7 7 7 7 7 6 6 5 5 6 6 5 4 2 2 3 4 6 7 7 7 6 5
29 29 28 27 26 27 27 27 27 26 26 26 26 25 24 22 21 19 17 15 14 14 14 14 13 12 12 13 14 15 16 16 15 15 14 13 12 12 10 9 11 13 14 14 13 11 9 8 6 6 6 6 6 7 8 8 8 8 9 8 8 7 6 6 6 5 5 5 5 4 3 4 4 4 4 3 2 2 3 5 7 8 8 8 7
28 28 28 28 28 28 28 28 28 27 27 27 26 25 24 23 22 20 18 16 16 16 16 16 15 14 13 14 14 16 17 17 16 15 14 13 12 12 10 10 13 15 15 15 13 11 10 8 7 8 7 6 6 7 8 8 9 9 9 8 8 7 6 5 5 4 4 4 3 3 2 2 2 2 3 2 1 2 3 4 6 7 9 9 9
29 29 30 30 30 30 30 30 29 29 29 28 27 26 25 24 23 21 19 17 17 16 16 16 15 15 14 14 15 16 17 17 16 15 14 13 13 12 11 12 15 16 16 15 14 12 10 9 9 9 7 6 7 7 8 9 9 10 9 9 8 7 6 5 4 4 3 3 3 2 1 1 1 2 1 1 1 0 2 4 5 7 8 10 11
Wind_Direction
139 135 131 134 138 137 134 132 134 141 144 147 149 145 142 143 141 135 129 125 123 120 118 112 106 104 106 108 107 103 98 95 94 95 94 92 91 90 89 88 87 87 90 93 95 97 99 99 101 105 105 100 94 93 91 79 69 64 66 67 54 48 70 103 105 111 119 128 137 136 143 149 151 156 158 165 177 191 200 204 212 218 224 222 220
142 139 135 137 138 136 136 135 137 142 142 143 149 146 141 141 137 130 125 125 123 119 114 108 105 107 110 108 104 99 94 92 93 92 90 88 88 86 85 85 85 86 88 91 93 93 95 94 91 92 97 98 95 95 91 78 70 68 70 72 61 56 80 115 113 114 120 126 133 132 135 134 132 133 134 143 155 172 186 196 204 209 217 218 217
144 142 140 139 137 137 139 139 138 142 145 144 145 141 138 138 132 127 127 126 121 115 110 107 108 110 109 106 101 96 94 92 91 88 86 84 84 85 86 86 86 87 87 90 92 92 93 92 88 85 88 91 90 89 83 73 69 66 68 72 65 60 81 121 122 118 121 124 127 125 124 122 122 123 125 130 137 150 165 181 191 196 204 207 209
147 147 145 143 139 137 140 142 139 141 147 145 142 138 136 134 129 128 128 123 116 111 108 108 109 109 107 104 100 96 94 91 86 81 78 78 80 83 84 86 88 87 86 88 89 91 92 91 88 84 85 87 87 83 76 72 70 66 64 66 64 61 78 118 127 119 122 121 122 122 121 121 122 124 125 126 131 143 156 171 179 182 186 192 196
150 150 148 146 141 138 140 143 141 143 145 142 141 137 133 131 128 128 126 118 113 111 109 109 109 108 105 101 99 95 92 87 82 77 75 77 78 80 82 84 88 87 84 84 83 84 86 87 86 82 83 86 84 78 74 74 72 68 64 62 63 63 73 107 125 118 117 117 120 120 117 117 118 119 120 123 129 140 153 163 167 169 170 175 179
150 148 147 146 141 138 140 142 142 144 143 141 138 133 130 129 129 127 121 115 113 112 111 110 108 106 102 99 97 94 88 82 80 79 79 80 79 80 81 84 87 87 83 82 81 80 79 81 82 83 85 85 79 74 76 77 74 69 68 65 63 66 72 94 116 116 112 115 118 115 111 109 108 107 107 113 118 123 135 147 152 159 163 163 163
148 146 145 145 141 139 139 139 139 141 141 139 135 131 131 130 128 124 118 116 115 113 111 109 107 104 101 99 95 90 84 81 81 83 84 83 82 81 82 85 86 85 82 81 83 82 80 79 81 83 85 84 79 79 83 82 77 71 70 68 65 68 74 88 107 115 116 118 115 110 109 107 105 104 99 100 101 102 108 118 127 138 148 149 149
147 146 146 145 142 140 138 137 136 138 138 137 136 134 133 130 127 122 119 118 115 113 110 109 106 104 101 96 90 86 83 82 84 86 88 88 86 84 84 85 85 84 82 84 86 85 82 83 84 83 84 84 82 83 86 83 80 77 74 73 69 71 78 87 101 113 120 120 113 108 108 105 105 102 92 90 91 92 95 101 106 113 120 124 128
148 148 146 146 143 141 139 138 138 140 141 141 139 136 133 129 126 122 121 119 116 113 110 108 105 103 98 93 87 84 84 84 87 88 90 90 87 83 82 83 83 83 83 86 87 86 84 86 87 85 85 85 84 83 84 83 82 81 78 78 77 76 82 91 100 110 119 120 113 108 107 105 106 103 91 87 88 87 89 94 100 101 102 106 112
147 148 147 147 144 143 142 141 142 144 145 144 140 136 133 129 126 124 122 119 116 112 109 107 105 102 97 91 86 86 86 86 90 92 91 88 85 80 78 80 81 83 84 86 87 87 86 86 87 87 87 86 86 85 84 84 83 81 79 80 83 83 85 93 102 109 115 118 115 110 108 108 109 106 97 92 91 89 88 92 98 100 101 101 102
147 148 148 148 146 145 144 144 145 148 149 146 142 138 134 130 128 126 124 120 115 112 109 107 105 102 97 91 88 89 89 91 94 93 91 88 86 82 79 78 81 83 85 87 87 87 85 84 85 87 87 87 87 86 83 82 82 81 78 81 88 92 88 88 97 106 112 114 114 111 109 111 112 109 104 101 98 95 92 92 96 103 107 105 102
149 150 150 149 148 147 147 147 148 151 151 148 144 141 137 133 131 129 125 120 116 112 110 109 107 103 99 93 90 90 91 95 95 94 92 90 88 83 80 80 83 84 85 86 85 84 82 80 80 83 84 86 86 83 80 78 78 77 77 80 85 89 87 86 88 96 106 109 111 111 110 110 112 110 108 108 106 102 97 94 96 103 108 111 114
152 152 152 151 149 149 150 149 150 153 153 150 146 143 140 137 135 131 126 121 117 114 112 110 109 105 101 96 93 92 94 95 94 94 93 91 89 85 84 85 86 86 84 83 81 80 78 77 76 77 79 80 80 76 74 74 75 76 81 86 85 82 83 88 87 87 94 101 106 110 110 109 110 111 110 112 114 112 105 96 96 104 109 113 120
155 154 153 152 149 150 151 151 152 154 154 152 149 147 144 141 139 134 127 123 119 115 114 112 111 109 104 99 95 95 95 94 93 94 92 89 87 87 87 86 86 83 78 75 74 75 73 73 71 70 70 72 73 71 68 66 70 74 82 93 93 87 85 90 92 89 88 92 99 106 111 111 109 108 111 116 118 118 110 95 91 107 116 120 123
159 156 154 153 151 151 152 153 154 155 156 154 152 150 147 144 141 136 130 125 121 118 116 115 114 112 107 101 98 100 99 97 95 92 89 86 84 84 84 82 80 75 73 70 69 70 70 70 69 67 65 66 68 70 69 66 71 73 75 86 92 92 91 91 94 96 93 92 96 102 109 112 109 104 111 120 114 109 103 94 81 106 129 137 135
161 159 157 155 154 154 154 156 156 156 157 158 155 153 151 148 144 138 133 128 123 121 120 119 118 114 107 101 102 105 102 101 96 90 85 82 82 79 77 75 73 73 72 71 70 70 71 71 70 68 66 66 66 68 71 72 74 73 73 78 83 87 89 90 91 97 98 97 98 103 107 110 117 116 118 129 122 110 111 132 151 145 146 154 154
160 160 160 158 157 156 156 159 158 157 159 160 158 156 154 152 147 141 136 131 127 125 125 124 122 115 105 101 105 107 105 102 94 85 79 78 79 74 72 70 71 74 74 73 73 74 75 73 70 67 66 67 66 66 69 69 69 74 80 80 82 81 79 86 89 95 100 100 99 101 105 111 123 120 117 137 142 132 152 175 178 179 172 163 163
160 162 163 161 161 159 159 160 159 159 161 161 160 159 157 154 149 143 139 135 133 133 132 130 124 116 107 104 105 106 106 102 90 80 76 76 74 71 69 68 72 74 74 74 74 74 72 69 65 62 63 64 65 64 60 60 63 74 84 81 79 77 69 78 87 95 101 102 99 97 100 107 115 116 124 154 150 139 170 181 172 175 166 156 157
162 164 165 164 164 163 161 161 160 161 161 161 161 161 159 156 151 146 143 141 140 140 137 133 128 120 113 111 107 105 104 99 90 76 72 72 69 68 72 74 75 72 72 72 71 68 65 61 56 53 54 56 60 58 53 55 58 66 77 77 74 73 68 71 84 96 104 106 104 97 94 94 104 117 134 148 138 143 178 178 163 164 152 138 140
167 167 167 167 167 165 163 162 161 162 161 161 162 162 160 157 153 150 148 148 147 144 140 137 131 124 122 121 111 102 100 96 92 78 68 68 70 73 77 78 76 71 67 66 65 63 60 57 52 49 48 50 53 50 49 53 56 58 62 70 75 76 77 78 85 99 107 111 114 110 103 94 96 109 114 108 109 116 132 139 148 159 146 129 122
170 170 171 169 168 167 165 164 163 163 163 163 163 163 162 159 156 155 154 153 151 147 143 140 134 130 130 129 118 103 98 97 92 83 73 71 77 82 82 81 76 70 65 62 61 59 59 58 53 50 49 48 48 44 40 41 45 44 34 34 65 85 88 93 101 109 110 111 117 118 115 108 101 102 98 95 93 77 74 84 87 119 129 124 121
172 172 173 171 169 167 166 165 165 165 165 164 164 164 163 162 160 159 159 156 153 149 145 145 141 137 139 139 129 112 103 101 95 87 82 78 81 84 83 82 77 71 65 61 56 54 57 57 54 50 48 46 44 41 39 35 32 23 11 356 315 187 131 125 134 132 126 125 124 126 121 115 109 103 97 93 90 76 71 73 67 77 101 109 107
174 174 174 173 170 167 166 167 167 167 167 165 165 166 165 164 164 164 162 159 154 152 151 151 149 146 148 150 142 131 122 113 103 95 90 86 85 83 78 74 71 68 64 58 49 46 49 50 49 47 44 41 39 38 38 36 29 19 13 7 334 234 205 170 164 168 160 153 142 136 130 121 114 107 104 101 94 85 74 69 67 70 82 91 83
176 175 175 175 172 168 165 168 170 169 168 168 167 167 167 166 167 167 165 162 158 156 158 160 159 158 155 153 149 143 137 123 109 102 97 93 91 87 79 71 67 64 60 55 43 37 39 39 40 42 39 34 33 31 29 29 28 27 30 34 26 239 212 198 182 180 178 175 164 149 138 128 120 116 117 114 107 100 84 72 70 71 72 81 86
178 176 176 176 173 169 167 169 172 172 171 170 170 169 170 170 170 171 168 165 162 162 166 169 169 165 159 155 153 148 145 133 115 104 99 95 92 86 80 74 68 63 56 47 37 32 31 32 32 32 32 28 27 24 20 19 21 27 37 50 55 68 169 196 193 188 187 184 177 171 163 145 137 145 146 133 121 114 101 84 77 75 73 76 79
181 177 175 175 174 171 169 171 174 174 174 173 172 172 173 173 173 172 170 168 167 169 173 177 176 170 163 161 158 153 149 139 125 113 104 98 93 85 75 69 65 60 50 38 31 29 28 30 29 27 27 25 23 18 13 12 14 18 29 45 63 72 88 156 181 191 197 196 192 191 190 172 166 178 172 154 133 123 117 109 101 91 81 73 69
183 177 176 175 175 174 172 173 175 177 177 176 175 175 176 176 176 173 171 171 172 175 179 182 180 173 169 168 163 156 151 141 132 122 112 107 102 95 75 64 61 54 42 32 27 25 27 29 29 26 25 23 20 14 8 5 6 10 18 28 44 65 70 89 170 193 200 207 206 205 200 186 185 193 183 178 171 157 143 139 143 120 98 78 68
184 179 178 178 176 175 174 174 176 178 179 178 177 177 178 178 177 174 173 174 176 180 184 187 182 177 175 172 165 159 154 144 136 128 119 117 111 104 89 73 58 45 31 24 21 20 24 29 28 24 23 24 20 11 1 360 1 2 9 15 21 42 62 67 126 185 198 204 205 208 205 191 193 207 199 206 205 182 169 166 158 131 117 107 89
185 182 180 179 178 176 176 175 176 177 178 177 177 178 178 178 176 175 176 177 179 184 188 189 185 182 181 176 171 168 164 154 146 143 132 129 122 102 89 68 45 41 31 18 15 17 21 25 26 18 18 18 14 9 357 353 358 358 0 6 10 18 36 45 47 147 200 209 203 201 201 192 193 215 212 212 215 201 203 199 169 143 152 171 136
184 184 183 181 180 177 176 176 175 177 177 176 177 178 177 176 176 177 180 181 183 188 190 190 188 186 186 184 181 177 172 167 164 162 156 157 160 102 38 35 25 24 28 21 12 14 16 20 21 14 16 13 6 8 354 345 351 358 359 359 3 6 12 18 11 1 6 214 197 191 193 190 190 213 216 207 210 202 207 221 197 173 195 209 171
184 184 182 181 181 178 177 177 177 178 176 175 177 178 177 176 178 181 183 185 188 190 189 191 191 190 191 190 187 182 181 184 186 185 183 188 196 247 321 357 5 4 17 24 11 10 10 8 7 2 7 9 5 360 346 341 345 353 359 358 358 358 355 0 5 355 5 67 145 174 185 189 190 209 216 206 214 212 206 210 204 196 226 239 209
184 183 182 182 182 180 179 180 180 180 177 177 178 178 179 180 183 186 186 190 193 192 191 191 193 194 194 193 193 191 193 200 204 203 203 204 204 227 283 334 354 360 8 11 4 5 2 357 356 350 346 349 358 352 339 337 339 341 353 358 0 357 348 348 356 353 1 71 106 146 169 183 190 203 213 211 218 220 212 207 202 207 227 247 249
184 183 184 184 183 182 183 183 183 181 179 179 180 181 182 185 187 189 190 194 195 194 193 192 194 198 196 195 197 197 202 209 214 214 213 211 206 218 258 329 354 1 354 355 357 357 354 350 350 347 340 335 343 344 333 330 331 331 343 354 3 3 351 344 346 349 353 61 102 125 149 173 188 198 211 220 221 218 217 215 210 212 231 251 257
185 186 186 185 185 185 186 186 185 183 182 183 183 184 186 189 191 191 193 196 196 194 195 195 197 198 198 199 199 199 205 208 214 218 218 215 206 219 255 355 348 342 336 345 351 348 344 342 345 346 342 334 329 331 326 325 330 329 335 349 358 7 360 343 340 344 341 20 114 114 127 161 187 195 208 224 228 225 223 222 217 215 231 244 245
188 189 187 187 188 189 189 189 187 186 186 186 187 189 191 193 195 194 195 197 196 195 197 199 200 201 201 203 201 200 204 206 211 218 220 218 208 227 237 150 258 311 333 342 341 339 336 333 342 345 339 333 323 322 320 321 329 329 330 342 352 4 8 343 330 340 334 293 152 115 111 138 181 194 207 226 235 238 232 228 225 225 232 237 239
191 190 189 190 190 191 192 191 190 189 189 190 190 193 195 197 198 197 197 197 196 197 200 203 203 203 204 206 205 203 205 208 211 216 218 214 205 217 219 205 255 301 329 337 334 332 331 326 334 334 323 319 317 323 326 322 323 325 328 338 347 2 18 1 334 340 290 250 215 135 120 127 157 183 204 227 237 242 241 235 233 236 238 237 239
194 193 192 193 193 194 195 193 192 192 192 193 194 196 199 201 201 200 200 198 197 198 202 205 205 205 205 207 208 207 208 211 212 213 212 207 198 202 208 225 251 299 319 329 327 324 323 322 326 323 314 313 313 323 323 314 314 320 332 346 351 5 26 43 109 168 226 240 240 233 184 151 160 178 196 222 235 239 240 240 242 246 250 249 247
196 197 195 194 195 197 197 195 194 194 194 195 196 198 201 202 203 202 202 200 198 199 203 204 205 205 206 208 209 210 212 212 211 210 207 198 191 193 199 231 269 299 311 318 318 316 317 318 322 323 327 330 325 316 296 302 310 316 333 352 360 18 36 74 132 164 195 223 257 261 247 208 195 200 206 216 228 234 237 242 247 254 261 260 254
198 199 198 196 197 198 197 196 196 196 196 197 198 200 202 203 203 202 202 200 199 201 204 204 205 206 206 210 211 212 215 214 211 209 204 199 194 198 210 249 276 291 304 308 308 310 312 315 322 336 2 359 351 353 325 324 323 319 341 5 20 46 63 102 135 159 162 169 223 263 286 280 250 233 230 228 230 233 235 237 240 244 252 257 253
199 201 201 199 198 198 197 196 196 197 198 199 200 202 203 202 201 201 200 200 200 203 205 205 206 207 208 213 214 214 216 215 212 205 202 202 203 213 231 259 273 287 299 301 300 303 307 317 10 39 34 28 19 24 18 0 345 349 20 37 50 71 93 117 134 153 146 162 205 215 281 301 296 278 265 253 245 241 236 234 238 239 240 249 254
201 203 203 201 200 199 198 196 196 197 199 201 202 203 203 201 198 197 197 199 203 206 208 207 208 210 213 217 218 218 218 215 210 202 201 204 209 225 248 264 276 292 299 295 291 290 288 63 76 71 56 49 53 47 38 26 19 24 41 54 62 76 98 115 121 124 121 107 351 66 354 311 308 296 290 281 264 249 240 237 239 242 242 245 252
204 205 205 203 202 201 199 197 198 199 200 202 203 203 202 201 199 198 198 200 204 208 209 209 210 212 216 220 221 220 219 216 210 204 202 206 213 230 251 266 282 295 294 283 258 175 126 104 93 87 74 60 57 52 45 40 39 40 48 57 64 71 82 92 91 84 81 74 44 33 31 23 340 318 307 299 283 256 243 241 241 244 248 251 255
207 207 207 206 204 203 200 199 200 201 202 203 203 203 202 202 203 203 204 204 206 208 209 210 210 212 214 218 219 218 217 215 212 208 205 208 216 229 246 263 283 291 278 238 176 143 124 110 101 92 83 71 59 52 48 45 46 49 53 59 65 68 69 75 77 71 64 59 51 39 36 41 35 19 354 325 304 277 254 245 245 246 251 257 261
207 207 207 207 206 204 202 202 203 204 205 204 203 203 204 205 204 203 204 205 206 207 209 211 212 212 213 216 218 218 216 215 213 211 207 209 215 225 241 260 278 276 227 178 158 140 128 118 108 97 86 76 60 49 45 42 45 50 59 66 67 67 66 69 73 70 64 56 50 41 36 42 49 47 40 23 354 321 286 261 256 255 260 266 270
210 210 209 209 208 207 205 205 206 207 205 203 202 204 205 206 204 202 202 204 206 208 211 216 218 218 219 221 221 220 218 217 216 213 211 212 216 224 238 255 264 241 187 165 155 144 134 123 113 103 90 73 51 40 35 37 42 46 59 71 71 69 68 69 71 68 64 59 55 49 39 43 48 46 47 49 52 37 351 306 285 276 280 283 283
213 212 211 211 210 209 208 207 208 208 205 202 202 204 205 205 204 205 207 209 211 212 213 218 223 225 226 227 226 225 222 220 220 218 216 214 218 226 235 248 247 209 178 164 157 149 140 130 122 114 99 77 56 47 45 47 51 52 62 75 78 79 77 75 74 70 64 59 56 52 45 46 47 44 44 40 35 19 352 336 324 306 297 298 296
214 213 214 213 212 211 210 209 209 208 205 203 204 205 205 206 207 208 212 215 216 210 202 205 213 220 223 227 229 228 225 222 223 222 219 217 219 225 233 239 228 194 176 167 161 153 145 140 136 126 107 87 70 60 55 52 55 58 66 79 86 89 88 84 82 79 72 63 55 51 45 41 41 42 40 24 358 345 340 338 341 343 345 345 340
215 213 214 214 213 212 212 211 210 208 206 206 207 208 208 209 211 213 215 216 213 207 201 198 203 211 217 224 229 230 226 221 221 220 219 218 218 223 230 230 208 187 178 170 164 157 151 152 147 135 120 98 78 66 60 54 55 59 64 74 82 88 89 88 87 86 83 77 64 50 39 32 32 35 31 5 329 326 331 330 335 342 346 355 357
217 215 214 213 213 213 213 213 210 208 207 207 209 211 211 213 214 217 218 218 215 212 210 207 208 212 216 220 225 228 226 221 219 219 218 217 217 221 226 217 197 186 179 173 165 160 159 160 155 145 132 110 86 68 59 54 53 56 60 65 69 73 77 80 81 80 80 80 75 65 48 31 24 25 28 16 334 321 316 315 324 332 335 340 346
219 216 214 212 212 212 212 212 210 208 207 208 210 213 215 216 217 219 221 222 222 220 221 219 219 223 225 225 225 226 225 222 221 221 218 215 213 217 219 205 193 186 181 174 168 166 166 163 157 153 142 119 94 74 62 57 55 55 58 60 62 62 62 64 66 62 62 66 66 67 63 45 13 4 26 31 359 323 304 303 310 317 322 326 330
218 215 213 211 210 211 211 210 210 209 209 210 212 215 217 220 221 222 223 225 226 227 229 229 230 233 237 236 234 231 227 223 223 221 216 210 208 212 213 201 193 187 181 177 173 171 167 162 160 158 149 125 100 82 66 59 55 53 54 57 58 58 56 52 46 40 34 31 32 26 14 7 299 283 354 51 65 315 287 291 299 305 312 316 320
Height
3182 3184 3184 3185 3185 3188 3189 3190 3191 3193 3195 3197 3198 3198 3199 3202 3203 3203 3203 3205 3206 3207 3207 3208 3208 3208 3209 3210 3211 3211 3212 3212 3212 3212 3212 3212 3212 3212 3211 3211 3211 3212 3212 3212 3213 3213 3214 3215 3215 3215 3214 3214 3214 3214 3214 3214 3213 3212 3211 3210 3210 3209 3209 3208 3208 3208 3209 3209 3210 3211 3212 3212 3212 3213 3213 3214 3214 3215 3216 3216 3217 3217 3218 3219 3220
3183 3185 3186 3186 3186 3187 3190 3191 3192 3194 3196 3198 3200 3201 3200 3202 3203 3204 3205 3206 3207 3208 3208 3208 3209 3210 3211 3211 3212 3212 3212 3213 3213 3213 3213 3212 3212 3212 3212 3212 3212 3212 3213 3213 3213 3214 3215 3215 3215 3215 3214 3214 3214 3214 3214 3213 3213 3212 3212 3211 3210 3210 3209 3209 3209 3209 3209 3210 3211 3212 3212 3213 3213 3213 3213 3213 3214 3215 3215 3216 3217 3217 3218 3219 3220
3184 3185 3186 3187 3188 3188 3190 3192 3193 3195 3197 3199 3201 3202 3201 3203 3204 3205 3206 3208 3208 3209 3209 3210 3210 3211 3212 3213 3213 3213 3213 3213 3213 3213 3213 3213 3213 3213 3213 3213 3213 3213 3213 3213 3214 3215 3215 3215 3215 3215 3215 3214 3214 3214 3214 3214 3213 3213 3212 3211 3211 3210 3210 3209 3209 3210 3210 3211 3211 3212 3213 3213 3213 3214 3214 3214 3214 3214 3215 3216 3217 3217 3218 3219 3220
3184 3185 3186 3188 3189 3190 3192 3193 3195 3196 3199 3200 3202 3203 3203 3204 3205 3206 3208 3209 3209 3209 3210 3211 3212 3212 3213 3213 3214 3214 3214 3214 3213 3213 3213 3213 3213 3213 3213 3214 3214 3214 3214 3214 3215 3215 3215 3215 3215 3215 3215 3215 3214 3214 3214 3214 3214 3213 3213 3212 3212 3211 3211 3210 3210 3211 3211 3212 3212 3213 3213 3214 3214 3214 3215 3214 3215 3215 3215 3216 3217 3217 3218 3219 3220
3185 3186 3187 3189 3191 3192 3193 3195 3197 3198 3200 3202 3203 3204 3204 3205 3207 3208 3209 3209 3210 3210 3211 3212 3213 3214 3214 3214 3214 3215 3215 3214 3214 3214 3213 3213 3214 3214 3214 3215 3215 3215 3215 3215 3216 3216 3215 3215 3215 3215 3215 3215 3215 3215 3215 3215 3215 3214 3214 3213 3213 3212 3212 3211 3212 3212 3212 3213 3213 3214 3214 3215 3215 3215 3215 3215 3215 3216 3216 3216 3217 3218 3218 3219 3220
3186 3187 3188 3190 3192 3193 3194 3196 3198 3200 3201 3203 3204 3204 3205 3207 3208 3209 3210 3210 3211 3212 3213 3213 3214 3215 3215 3215 3216 3216 3215 3215 3214 3214 3214 3214 3215 3215 3215 3216 3216 3216 3216 3216 3216 3216 3216 3216 3216 3216 3216 3216 3216 3216 3216 3216 3216 3215 3215 3215 3214 3214 3213 3213 3213 3213 3213 3214 3214 3215 3215 3216 3216 3216 3216 3216 3216 3216 3217 3217 3218 3218 3218 3219 3220
3187 3188 3190 3191 3193 3194 3195 3197 3199 3201 3202 3203 3204 3205 3207 3208 3209 3210 3210 3211 3212 3213 3214 3214 3215 3216 3216 3217 3217 3216 3216 3215 3215 3215 3215 3215 3216 3216 3216 3217 3217 3217 3217 3217 3217 3216 3216 3217 3217 3217 3217 3217 3217 3216 3216 3217 3216 3216 3216 3216 3215 3215 3215 3214 3214 3214 3215 3215 3215 3216 3216 3216 3217 3217 3218 3217 3217 3217 3217 3218 3218 3218 3219 3219 3220
3188 3189 3191 3192 3194 3195 3196 3198 3200 3201 3202 3204 3205 3207 3208 3210 3210 3211 3211 3212 3213 3214 3215 3215 3216 3217 3217 3217 3217 3217 3216 3216 3216 3216 3217 3217 3217 3217 3217 3218 3218 3218 3218 3217 3217 3217 3217 3217 3217 3217 3217 3217 3217 3217 3217 3217 3217 3217 3217 3217 3216 3216 3216 3216 3215 3215 3216 3216 3217 3217 3217 3217 3218 3218 3219 3218 3218 3218 3218 3218 3219 3219 3220 3220 3221
3188 3190 3192 3194 3195 3196 3198 3199 3201 3202 3204 3205 3207 3209 3210 3210 3211 3212 3212 3213 3214 3215 3215 3216 3217 3218 3218 3218 3218 3218 3217 3217 3217 3218 3218 3218 3218 3218 3218 3218 3219 3219 3219 3218 3218 3218 3218 3218 3218 3218 3218 3218 3218 3218 3218 3218 3217 3217 3217 3217 3217 3217 3217 3217 3216 3216 3217 3217 3218 3218 3218 3218 3219 3219 3219 3219 3219 3219 3219 3219 3219 3220 3221 3221 3221
3189 3191 3193 3195 3196 3198 3199 3200 3202 3203 3205 3207 3208 3210 3211 3211 3212 3213 3213 3214 3215 3216 3216 3217 3218 3218 3219 3219 3219 3218 3218 3218 3219 3219 3219 3219 3219 3219 3219 3219 3219 3220 3220 3219 3219 3219 3219 3219 3219 3219 3219 3219 3218 3218 3218 3218 3218 3218 3218 3218 3218 3217 3217 3217 3217 3217 3217 3218 3218 3218 3219 3219 3219 3219 3220 3220 3220 3220 3220 3220 3221 3221 3222 3222 3222
3190 3192 3193 3195 3197 3199 3200 3202 3203 3205 3206 3208 3209 3211 3211 3212 3213 3213 3214 3215 3216 3217 3217 3218 3219 3219 3219 3219 3219 3219 3219 3220 3220 3220 3220 3220 3220 3220 3220 3220 3220 3220 3220 3220 3220 3220 3220 3220 3220 3220 3220 3220 3219 3219 3219 3219 3219 3219 3219 3218 3219 3218 3218 3218 3218 3218 3218 3218 3218 3219 3219 3220 3220 3220 3221 3221 3221 3221 3221 3221 3221 3222 3223 3223 3223
3191 3193 3194 3196 3198 3200 3201 3202 3204 3205 3207 3209 3210 3211 3212 3212 3213 3214 3215 3216 3217 3218 3218 3219 3220 3220 3220 3220 3220 3220 3221 3221 3221 3221 3221 3221 3221 3221 3221 3221 3221 3221 3221 3221 3221 3221 3221 3220 3221 3221 3221 3221 3220 3220 3220 3220 3220 3220 3220 3219 3219 3219 3219 3219 3219 3219 3219 3219 3219 3220 3220 3220 3221 3221 3221 3221 3222 3222 3222 3222 3222 3223 3223 3223 3224
3192 3193 3195 3197 3199 3200 3202 3203 3205 3206 3208 3209 3211 3212 3212 3213 3214 3215 3216 3217 3218 3218 3219 3220 3221 3221 3221 3221 3221 3221 3222 3222 3222 3222 3222 3222 3222 3222 3222 3222 3222 3222 3222 3222 3222 3222 3222 3222 3222 3222 3222 3222 3222 3222 3221 3221 3221 3221 3221 3220 3220 3220 3220 3220 3220 3220 3220 3220 3220 3221 3221 3221 3222 3222 3222 3222 3222 3222 3222 3222 3223 3223 3224 3224 3224
3193 3194 3196 3198 3199 3201 3202 3204 3205 3207 3208 3210 3211 3212 3213 3214 3215 3216 3217 3218 3219 3219 3220 3221 3222 3222 3222 3222 3222 3222 3222 3223 3223 3222 3222 3223 3223 3223 3223 3223 3223 3223 3223 3223 3223 3223 3223 3223 3223 3223 3223 3223 3223 3223 3222 3222 3222 3221 3221 3221 3221 3221 3220 3220 3220 3220 3220 3221 3221 3221 3221 3222 3223 3223 3223 3223 3223 3223 3223 3223 3224 3224 3224 3224 3224
3194 3195 3196 3198 3200 3201 3203 3204 3205 3207 3209 3210 3211 3212 3213 3215 3216 3217 3218 3218 3219 3220 3221 3222 3222 3223 3223 3223 3223 3223 3223 3224 3223 3223 3224 3224 3224 3224 3224 3224 3224 3224 3224 3224 3224 3224 3224 3224 3224 3224 3223 3223 3223 3223 3223 3223 3223 3222 3222 3222 3222 3221 3221 3221 3221 3221 3221 3221 3221 3222 3222 3223 3223 3223 3224 3224 3223 3223 3224 3224 3224 3225 3225 3225 3225
3194 3196 3197 3198 3200 3202 3203 3205 3206 3208 3209 3210 3212 3213 3214 3215 3216 3217 3218 3219 3220 3221 3222 3223 3223 3223 3223 3223 3223 3224 3224 3224 3224 3224 3225 3225 3225 3225 3225 3225 3225 3225 3225 3225 3225 3225 3225 3225 3225 3225 3224 3224 3224 3224 3224 3224 3223 3223 3223 3223 3223 3222 3222 3222 3222 3221 3221 3221 3221 3222 3222 3223 3224 3224 3224 3224 3224 3224 3224 3225 3225 3225 3225 3225 3225
3195 3196 3198 3199 3200 3202 3203 3205 3206 3208 3209 3211 3212 3213 3215 3216 3217 3218 3219 3220 3221 3222 3222 3223 3224 3224 3224 3224 3224 3224 3225 3225 3225 3225 3226 3226 3226 3226 3226 3226 3226 3226 3226 3226 3226 3226 3226 3226 3226 3226 3225 3225 3225 3225 3225 3224 3224 3224 3224 3224 3224 3223 3223 3223 3222 3222 3222 3222 3222 3222 3223 3223 3223 3224 3225 3225 3225 3225 3225 3226 3225 3225 3225 3225 3225
3195 3196 3198 3199 3201 3202 3204 3205 3207 3208 3209 3211 3212 3214 3215 3216 3218 3219 3219 3220 3221 3222 3223 3224 3225 3225 3225 3225 3225 3225 3226 3226 3226 3226 3227 3227 3227 3227 3227 3227 3227 3227 3227 3227 3227 3227 3227 3227 3226 3226 3226 3226 3226 3226 3225 3225 3225 3225 3224 3224 3224 3224 3224 3224 3223 3223 3223 3223 3223 3223 3223 3223 3224 3225 3225 3225 3225 3226 3226 3226 3226 3226 3226 3226 3226
3195 3196 3198 3199 3201 3203 3204 3206 3207 3208 3210 3211 3213 3214 3215 3217 3218 3219 3220 3221 3222 3223 3224 3224 3225 3225 3226 3226 3226 3226 3227 3227 3227 3227 3227 3227 3227 3227 3227 3227 3228 3228 3228 3228 3228 3228 3228 3228 3227 3227 3226 3226 3226 3226 3226 3226 3225 3225 3225 3225 3225 3225 3225 3225 3224 3224 3224 3224 3224 3224 3224 3224 3225 3225 3226 3226 3226 3226 3226 3226 3226 3226 3226 3226 3226
3195 3196 3198 3199 3201 3203 3204 3206 3208 3209 3210 3212 3213 3214 3216 3217 3218 3219 3220 3221 3222 3223 3224 3225 3225 3226 3226 3227 3227 3227 3227 3228 3228 3228 3228 3228 3228 3228 3228 3228 3229 3229 3229 3229 3229 3229 3229 3228 3228 3227 3227 3227 3227 3226 3226 3226 3226 3226 3226 3225 3225 3225 3225 3225 3225 3225 3224 3224 3224 3224 3224 3225 3225 3225 3226 3226 3226 3226 3226 3226 3226 3226 3226 3226 3227
3194 3196 3198 3199 3201 3203 3205 3206 3208 3209 3211 3212 3213 3215 3216 3217 3219 3220 3221 3222 3223 3224 3225 3225 3226 3227 3227 3227 3228 3228 3228 3228 3229 3229 3229 3229 3229 3229 3229 3229 3229 3229 3229 3229 3230 3230 3229 3229 3229 3228 3228 3227 3227 3227 3226 3226 3226 3226 3226 3226 3226 3225 3225 3225 3225 3225 3225 3225 3225 3225 3225 3225 3225 3226 3226 3226 3226 3226 3226 3226 3226 3226 3227 3227 3227
3194 3196 3197 3199 3201 3203 3205 3207 3208 3210 3211 3212 3213 3215 3216 3218 3219 3220 3221 3222 3223 3224 3225 3226 3226 3227 3228 3228 3228 3228 3229 3229 3229 3229 3229 3229 3229 3230 3230 3230 3230 3230 3230 3230 3230 3230 3230 3230 3229 3229 3229 3228 3228 3227 3227 3226 3226 3226 3226 3225 3225 3225 3225 3225 3225 3225 3225 3225 3226 3226 3226 3226 3226 3226 3226 3227 3227 3227 3227 3227 3227 3227 3227 3227 3228
3194 3196 3197 3199 3201 3203 3205 3207 3208 3210 3211 3212 3214 3215 3217 3218 3219 3220 3222 3223 3224 3225 3225 3226 3227 3228 3228 3228 3229 3229 3229 3230 3230 3230 3230 3230 3230 3230 3230 3230 3231 3231 3230 3230 3230 3230 3230 3230 3230 3229 3229 3229 3228 3228 3227 3227 3226 3226 3225 3224 3224 3224 3225 3225 3225 3225 3226 3226 3226 3226 3227 3227 3227 3227 3227 3227 3227 3227 3227 3227 3227 3228 3228 3228 3228
3195 3196 3198 3199 3201 3203 3205 3207 3208 3210 3211 3213 3214 3215 3217 3218 3219 3221 3222 3223 3224 3225 3226 3226 3227 3228 3228 3229 3229 3229 3230 3230 3230 3230 3230 3230 3230 3230 3231 3231 3231 3231 3231 3231 3231 3231 3231 3230 3230 3230 3229 3229 3228 3228 3227 3227 3227 3226 3225 3224 3224 3224 3224 3225 3225 3225 3226 3226 3226 3227 3227 3227 3227 3227 3227 3227 3227 3227 3228 3228 3228 3228 3228 3228 3228
3195 3196 3198 3199 3201 3203 3205 3206 3208 3210 3211 3213 3214 3215 3217 3218 3220 3221 3222 3223 3224 3225 3226 3227 3227 3228 3229 3229 3229 3230 3230 3230 3230 3230 3231 3231 3231 3231 3231 3231 3231 3232 3232 3232 3231 3231 3231 3231 3230 3230 3229 3229 3228 3228 3227 3227 3227 3226 3225 3225 3224 3224 3224 3225 3225 3225 3226 3226 3226 3226 3227 3227 3227 3227 3227 3227 3227 3228 3228 3228 3228 3228 3228 3229 3229
3195 3196 3198 3199 3201 3203 3205 3206 3208 3209 3211 3213 3214 3216 3217 3218 3220 3221 3222 3223 3224 3225 3226 3227 3227 3228 3229 3229 3229 3230 3230 3230 3230 3231 3231 3231 3231 3231 3231 3231 3232 3232 3232 3232 3232 3232 3232 3231 3231 3230 3230 3229 3228 3228 3227 3227 3226 3226 3225 3225 3225 3225 3225 3225 3225 3225 3226 3226 3226 3226 3226 3227 3227 3227 3228 3228 3228 3228 3228 3228 3228 3228 3228 3229 3229
3195 3197 3198 3199 3201 3203 3204 3206 3208 3209 3211 3212 3214 3215 3217 3218 3219 3221 3222 3223 3224 3225 3226 3227 3227 3228 3229 3229 3230 3230 3230 3230 3230 3231 3231 3231 3231 3231 3232 3232 3232 3232 3232 3232 3232 3232 3232 3232 3231 3231 3230 3229 3228 3228 3227 3227 3226 3226 3225 3225 3225 3225 3225 3225 3225 3225 3226 3226 3226 3226 3226 3227 3227 3227 3228 3228 3228 3228 3229 3228 3228 3228 3228 3229 3229
3195 3197 3198 3199 3201 3203 3204 3206 3207 3209 3211 3212 3214 3215 3216 3218 3219 3220 3221 3222 3224 3225 3226 3226 3227 3228 3229 3229 3230 3230 3230 3230 3230 3230 3231 3231 3231 3232 3232 3232 3232 3232 3232 3232 3232 3232 3232 3232 3231 3231 3230 3229 3229 3228 3228 3227 3227 3226 3225 3224 3224 3224 3224 3225 3225 3225 3225 3225 3226 3226 3226 3227 3227 3227 3228 3228 3228 3229 3229 3229 3229 3229 3229 3229 3229
3195 3197 3198 3199 3201 3203 3204 3206 3207 3209 3210 3212 3213 3215 3216 3217 3219 3220 3221 3222 3223 3224 3225 3226 3227 3228 3228 3229 3230 3230 3230 3230 3230 3230 3231 3231 3231 3232 3232 3232 3232 3232 3232 3232 3232 3232 3232 3232 3232 3231 3230 3230 3229 3229 3229 3229 3228 3227 3225 3225 3224 3224 3224 3224 3225 3225 3225 3224 3225 3225 3226 3226 3226 3227 3227 3227 3228 3229 3229 3229 3229 3229 3230 3230 3229
3195 3196 3198 3199 3201 3202 3204 3206 3207 3209 3210 3211 3213 3214 3216 3217 3218 3220 3221 3222 3223 3224 3225 3226 3227 3227 3228 3229 3229 3230 3230 3230 3231 3231 3231 3231 3231 3232 3232 3232 3232 3232 3232 3232 3232 3232 3232 3232 3232 3231 3231 3230 3230 3230 3230 3229 3229 3227 3226 3225 3224 3224 3223 3224 3224 3224 3224 3224 3224 3224 3225 3226 3226 3226 3226 3227 3228 3228 3229 3229 3229 3230 3230 3230 3230
3194 3195 3197 3199 3200 3202 3204 3205 3207 3208 3210 3211 3212 3214 3215 3217 3218 3219 3220 3222 3223 3224 3225 3225 3226 3227 3228 3228 3229 3229 3230 3230 3230 3231 3231 3231 3232 3232 3232 3232 3232 3232 3232 3232 3232 3232 3232 3232 3232 3231 3231 3231 3231 3230 3230 3230 3228 3227 3227 3226 3225 3224 3223 3223 3224 3224 3224 3224 3223 3224 3224 3225 3226 3225 3226 3227 3227 3228 3228 3228 3229 3229 3230 3230 3230
3193 3195 3196 3198 3200 3202 3203 3205 3206 3208 3209 3211 3212 3214 3215 3216 3217 3219 3220 3221 3222 3223 3224 3225 3226 3227 3227 3228 3229 3229 3229 3230 3230 3231 3231 3232 3232 3232 3232 3232 3232 3232 3232 3232 3232 3232 3232 3231 3231 3231 3231 3231 3231 3231 3231 3230 3228 3227 3227 3226 3225 3224 3224 3223 3224 3224 3224 3224 3223 3223 3224 3224 3225 3225 3225 3226 3226 3227 3227 3227 3228 3229 3230 3230 3230
3194 3195 3196 3197 3199 3201 3203 3204 3206 3207 3209 3210 3212 3213 3215 3216 3217 3218 3219 3220 3221 3223 3224 3225 3225 3226 3227 3228 3228 3229 3229 3229 3230 3230 3231 3232 3232 3232 3232 3232 3232 3232 3232 3232 3232 3232 3231 3231 3231 3231 3230 3230 3230 3231 3230 3230 3229 3227 3227 3226 3225 3225 3223 3223 3224 3224 3224 3224 3224 3224 3224 3224 3225 3225 3225 3225 3226 3227 3227 3227 3228 3228 3229 3230 3230
3193 3194 3195 3197 3199 3200 3202 3203 3205 3206 3208 3210 3211 3213 3214 3215 3216 3218 3219 3220 3221 3222 3223 3224 3225 3226 3227 3227 3228 3228 3229 3229 3229 3230 3231 3231 3232 3232 3232 3232 3232 3232 3232 3232 3232 3232 3231 3231 3230 3230 3230 3230 3230 3230 3230 3229 3228 3227 3226 3226 3225 3224 3223 3223 3223 3224 3224 3225 3224 3224 3224 3225 3225 3225 3226 3225 3225 3226 3227 3227 3228 3228 3229 3229 3229
3192 3194 3195 3197 3198 3200 3201 3203 3204 3206 3207 3209 3211 3212 3213 3215 3216 3217 3218 3219 3220 3221 3222 3223 3224 3225 3226 3227 3227 3228 3228 3229 3229 3230 3230 3231 3231 3231 3232 3232 3232 3232 3232 3232 3232 3231 3231 3231 3230 3230 3230 3230 3229 3229 3229 3228 3227 3226 3226 3225 3224 3223 3223 3223 3223 3223 3224 3224 3224 3224 3224 3225 3225 3225 3226 3225 3225 3226 3227 3227 3227 3228 3228 3228 3228
3192 3193 3195 3196 3197 3199 3200 3202 3204 3205 3207 3209 3210 3211 3213 3214 3215 3216 3217 3218 3219 3221 3222 3223 3224 3225 3225 3226 3227 3227 3228 3228 3229 3230 3230 3231 3231 3231 3231 3232 3232 3232 3232 3232 3231 3231 3231 3231 3230 3230 3230 3229 3229 3228 3228 3227 3227 3226 3225 3225 3224 3223 3223 3223 3223 3224 3224 3223 3224 3224 3224 3224 3225 3225 3226 3226 3226 3226 3226 3226 3227 3227 3227 3228 3228
3191 3193 3194 3195 3197 3198 3200 3201 3203 3204 3206 3208 3209 3210 3212 3213 3214 3215 3216 3217 3218 3220 3221 3222 3223 3224 3225 3226 3226 3227 3227 3228 3229 3229 3230 3230 3231 3231 3231 3231 3232 3232 3232 3231 3231 3231 3231 3230 3230 3229 3229 3229 3228 3228 3228 3227 3226 3226 3224 3224 3224 3223 3223 3223 3223 3223 3223 3223 3224 3225 3224 3224 3225 3225 3225 3226 3226 3226 3226 3226 3226 3226 3227 3227 3228
3190 3192 3193 3194 3196 3197 3199 3200 3202 3203 3205 3206 3208 3209 3211 3212 3213 3214 3215 3216 3217 3218 3219 3221 3222 3223 3224 3225 3225 3226 3227 3227 3228 3229 3230 3230 3230 3230 3231 3231 3231 3231 3231 3231 3231 3231 3230 3230 3229 3229 3228 3228 3228 3227 3227 3226 3225 3225 3224 3223 3223 3222 3222 3222 3222 3223 3223 3224 3224 3225 3224 3224 3225 3225 3225 3225 3225 3225 3225 3225 3226 3226 3226 3226 3227
3188 3190 3191 3193 3194 3196 3197 3199 3201 3202 3204 3205 3206 3208 3209 3210 3211 3213 3214 3215 3216 3217 3218 3220 3221 3222 3223 3224 3225 3225 3226 3227 3228 3228 3229 3229 3229 3230 3230 3231 3231 3231 3231 3231 3231 3230 3230 3229 3229 3229 3228 3228 3227 3227 3226 3225 3225 3224 3224 3223 3223 3223 3222 3222 3222 3223 3224 3224 3225 3225 3225 3224 3225 3225 3225 3225 3225 3225 3225 3225 3225 3226 3226 3226 3226
3187 3188 3190 3191 3193 3194 3195 3197 3199 3201 3202 3203 3205 3206 3207 3209 3210 3212 3213 3214 3215 3217 3218 3219 3220 3221 3222 3223 3224 3224 3225 3226 3227 3228 3228 3228 3229 3229 3230 3230 3230 3230 3230 3230 3230 3230 3230 3229 3229 3228 3228 3227 3227 3226 3225 3225 3224 3224 3224 3223 3223 3223 3222 3222 3222 3222 3223 3224 3225 3225 3225 3225 3225 3224 3224 3224 3224 3225 3225 3225 3225 3226 3226 3226 3226
3184 3186 3188 3189 3191 3193 3194 3196 3198 3199 3201 3202 3204 3205 3207 3208 3210 3211 3212 3214 3215 3216 3217 3218 3219 3220 3221 3222 3223 3223 3224 3225 3226 3227 3227 3228 3228 3229 3229 3230 3230 3230 3230 3230 3230 3229 3229 3229 3229 3228 3227 3227 3227 3226 3225 3225 3224 3224 3223 3223 3223 3223 3223 3222 3222 3222 3223 3224 3224 3225 3225 3226 3225 3224 3224 3223 3224 3224 3224 3224 3225 3225 3225 3225 3225
3182 3184 3186 3188 3190 3191 3193 3195 3196 3198 3200 3201 3203 3204 3206 3208 3209 3210 3212 3213 3214 3215 3216 3217 3218 3219 3220 3220 3221 3222 3223 3224 3225 3226 3227 3227 3228 3228 3229 3229 3229 3229 3229 3229 3229 3229 3229 3229 3228 3228 3227 3227 3227 3226 3226 3225 3225 3224 3223 3223 3223 3223 3223 3223 3222 3222 3223 3224 3224 3224 3225 3226 3225 3225 3224 3223 3223 3223 3223 3223 3224 3224 3224 3224 3224
3180 3183 3185 3187 3188 3190 3192 3193 3195 3197 3198 3200 3202 3204 3205 3207 3208 3209 3211 3212 3213 3214 3215 3215 3216 3217 3218 3219 3220 3221 3222 3223 3224 3225 3226 3227 3227 3228 3228 3229 3229 3229 3229 3229 3229 3229 3229 3229 3228 3228 3228 3227 3227 3227 3226 3226 3225 3224 3224 3223 3223 3223 3223 3223 3223 3223 3223 3223 3224 3224 3225 3225 3225 3224 3223 3223 3223 3222 3222 3222 3223 3223 3223 3223 3223
3178 3180 3182 3184 3186 3188 3190 3192 3194 3196 3197 3199 3201 3203 3204 3205 3206 3208 3209 3210 3211 3212 3213 3213 3214 3215 3216 3218 3219 3220 3221 3222 3223 3224 3225 3226 3227 3227 3228 3228 3228 3228 3229 3229 3229 3229 3229 3229 3229 3228 3228 3228 3228 3227 3227 3226 3225 3225 3224 3224 3223 3223 3223 3223 3223 3223 3223 3223 3224 3224 3224 3225 3224 3224 3223 3223 3222 3222 3222 3222 3222 3222 3222 3222 3221
3176 3177 3180 3182 3184 3187 3189 3191 3192 3194 3196 3198 3200 3201 3202 3203 3204 3205 3206 3207 3208 3209 3211 3212 3213 3214 3215 3217 3218 3219 3220 3221 3222 3223 3224 3225 3226 3227 3227 3227 3228 3228 3228 3229 3229 3229 3229 3229 3229 3229 3228 3228 3228 3227 3227 3226 3225 3225 3224 3224 3223 3223 3223 3223 3223 3223 3224 3224 3224 3224 3224 3224 3224 3224 3223 3223 3222 3222 3221 3221 3221 3221 3221 3221 3220
3174 3176 3178 3180 3183 3185 3187 3189 3190 3192 3194 3196 3198 3199 3200 3202 3203 3204 3205 3206 3208 3209 3210 3211 3212 3213 3214 3215 3216 3218 3219 3220 3221 3222 3223 3224 3225 3225 3226 3226 3227 3227 3228 3228 3229 3229 3229 3229 3229 3229 3229 3228 3228 3227 3226 3226 3225 3225 3224 3223 3223 3223 3223 3223 3223 3223 3223 3224 3224 3224 3224 3224 3224 3223 3223 3223 3222 3221 3221 3221 3221 3220 3220 3219 3219
3172 3175 3176 3178 3181 3183 3185 3187 3188 3190 3192 3194 3196 3197 3198 3200 3201 3203 3204 3206 3207 3209 3210 3211 3212 3213 3213 3214 3215 3216 3217 3218 3219 3220 3221 3222 3223 3224 3225 3225 3226 3226 3227 3228 3228 3228 3229 3229 3229 3229 3229 3228 3227 3227 3226 3226 3225 3225 3224 3223 3223 3223 3223 3223 3223 3223 3223 3223 3223 3223 3223 3223 3223 3223 3223 3223 3222 3221 3221 3220 3220 3220 3219 3219 3218
3171 3173 3174 3176 3179 3181 3183 3185 3186 3188 3190 3192 3194 3195 3197 3199 3200 3202 3203 3205 3206 3208 3209 3210 3211 3211 3212 3212 3213 3214 3215 3217 3218 3219 3220 3221 3222 3223 3224 3224 3225 3225 3226 3227 3227 3228 3228 3228 3229 3229 3228 3228 3228 3227 3226 3226 3226 3225 3224 3224 3223 3223 3223 3223 3223 3223 3223 3223 3223 3223 3222 3222 3222 3222 3222 3222 3222 3221 3220 3219 3219 3219 3218 3218 3218
3169 3170 3172 3175 3177 3179 3181 3182 3184 3186 3188 3190 3192 3194 3196 3197 3199 3200 3202 3203 3205 3206 3207 3208 3209 3210 3210 3211 3212 3213 3214 3215 3216 3217 3218 3220 3221 3222 3222 3223 3223 3225 3225 3226 3227 3227 3228 3228 3228 3228 3228 3228 3228 3227 3227 3226 3226 3225 3225 3224 3224 3224 3223 3223 3223 3223 3222 3222 3222 3222 3222 3221 3221 3221 3221 3221 3221 3220 3220 3219 3218 3218 3218 3217 3217
3167 3169 3171 3172 3174 3176 3178 3180 3182 3184 3186 3188 3190 3192 3194 3195 3197 3198 3200 3202 3203 3204 3205 3207 3208 3208 3209 3210 3211 3212 3213 3214 3215 3216 3217 3218 3219 3220 3221 3222 3222 3223 3224 3226 3226 3227 3227 3228 3228 3228 3228 3228 3228 3227 3227 3227 3226 3225 3225 3224 3224 3224 3224 3223 3223 3223 3222 3222 3222 3221 3221 3221 3221 3221 3220 3220 3220 3219 3219 3218 3218 3217 3217 3216 3216
3164 3166 3167 3169 3170 3172 3174 3177 3179 3181 3183 3186 3188 3190 3192 3193 3195 3197 3199 3200 3202 3203 3204 3205 3206 3207 3208 3209 3210 3210 3211 3212 3213 3214 3216 3217 3218 3219 3220 3220 3221 3222 3224 3225 3225 3226 3226 3227 3227 3228 3228 3228 3227 3227 3227 3226 3226 3225 3225 3224 3224 3224 3224 3223 3223 3223 3222 3222 3222 3221 3221 3221 3220 3220 3220 3219 3219 3218 3218 3217 3217 3216 3216 3215 3215